,,Stat5,,Stat1,,Stat2,,Stat3,,Stat4,,Wind1,,Wind1,
time,status,PA1M_AVG,status,PR1M_SUM,status,RH1M_AVG,status,SR1M_AVG,status,TA1M_AVG,status,W1dAve1m,status,W1sAve1m,
2001-03-16, 00:00:00,VALID,919.663,VALID,0,VALID,96.3062,VALID,0.0679233,VALID,20.269,VALID,103,VALID,0.399038,
2001-03-16, 00:01:00,VALID,919.681,VALID,0,VALID,96.4105,VALID,0.0679233,VALID,20.2265,VALID,110,VALID,0.207648,
2001-03-16, 00:02:00,VALID,919.664,VALID,0,VALID,96.5288,VALID,0.0679233,VALID,20.2074,VALID,110,VALID,0.00575658,
2001-03-16, 00:03:00,VALID,919.665,VALID,0,VALID,96.5746,VALID,0.0339617,VALID,20.2143,VALID,139,VALID,0,
2001-03-16, 00:04:00,VALID,919.638,VALID,0,VALID,96.5466,VALID,0.0679233,VALID,20.2009,VALID,202,VALID,0.0109797,
2001-03-16, 00:05:00,VALID,919.623,VALID,0,VALID,96.5326,VALID,0.0849042,VALID,20.185,VALID,233,VALID,0.380515,
2001-03-16, 00:06:00,VALID,919.613,VALID,0,VALID,96.5606,VALID,-0.0339617,VALID,20.1602,VALID,224,VALID,0.149054,
2001-03-16, 00:07:00,VALID,919.616,VALID,0,VALID,96.5479,VALID,-0.0169808,VALID,20.1381,VALID,218,VALID,0.00223214,
2001-03-16, 00:08:00,VALID,919.61,VALID,0,VALID,96.4194,VALID,0.0679233,VALID,20.1077,VALID,212,VALID,0,
2001-03-16, 00:09:00,VALID,919.615,VALID,0,VALID,96.4576,VALID,0.0849042,VALID,20.0844,VALID,212,VALID,0,
2001-03-16, 00:10:00,VALID,919.61,VALID,0,VALID,96.5122,VALID,0.101885,VALID,20.0881,VALID,135,VALID,0.331931,
2001-03-16, 00:11:00,VALID,919.606,VALID,0,VALID,96.6051,VALID,0.0849042,VALID,20.1047,VALID,83,VALID,0.8456,
2001-03-16, 00:12:00,VALID,919.591,VALID,0,VALID,96.97,VALID,0.0849042,VALID,20.1236,VALID,87,VALID,0.64926,
2001-03-16, 00:13:00,VALID,919.572,VALID,0,VALID,96.9827,VALID,0.0679233,VALID,20.14,VALID,97,VALID,0.752404,
2001-03-16, 00:14:00,VALID,919.569,VALID,0,VALID,96.9713,VALID,0.0849042,VALID,20.1172,VALID,91,VALID,1.12539,
2001-03-16, 00:15:00,VALID,919.568,VALID,0,VALID,97.1188,VALID,0.0679233,VALID,20.0953,VALID,82,VALID,0.847245,
2001-03-16, 00:16:00,VALID,919.593,VALID,0,VALID,97.3248,VALID,0.0169808,VALID,20.0846,VALID,86,VALID,0.837171,
2001-03-16, 00:17:00,VALID,919.603,VALID,0,VALID,97.3808,VALID,0.0679233,VALID,20.0824,VALID,82,VALID,1.31127,
2001-03-16, 00:18:00,VALID,919.609,VALID,0,VALID,97.4977,VALID,0.0509425,VALID,20.056,VALID,82,VALID,1.08573,
2001-03-16, 00:19:00,VALID,919.591,VALID,0,VALID,97.6058,VALID,0.0169808,VALID,20.0299,VALID,81,VALID,1.03968,
2001-03-16, 00:20:00,VALID,919.57,VALID,0,VALID,97.705,VALID,0.0339617,VALID,20.0399,VALID,92,VALID,0.998972,
2001-03-16, 00:21:00,VALID,919.543,VALID,0,VALID,97.7902,VALID,0.0849042,VALID,20.0237,VALID,99,VALID,1.05389,
2001-03-16, 00:22:00,VALID,919.504,VALID,0,VALID,97.8118,VALID,0.0679233,VALID,20.017,VALID,95,VALID,1.175,
2001-03-16, 00:23:00,VALID,919.47,VALID,0,VALID,97.8538,VALID,0.0509425,VALID,20.0113,VALID,85,VALID,1.49568,
2001-03-16, 00:24:00,VALID,919.443,VALID,0,VALID,97.9581,VALID,0.0849042,VALID,20.0143,VALID,90,VALID,0.805099,
2001-03-16, 00:25:00,VALID,919.448,VALID,0,VALID,98.0293,VALID,0.0849042,VALID,20.0173,VALID,117,VALID,0.466488,
2001-03-16, 00:26:00,VALID,919.443,VALID,0,VALID,98.0102,VALID,0.0339617,VALID,20.014,VALID,89,VALID,0.599095,
2001-03-16, 00:27:00,VALID,919.447,VALID,0,VALID,97.9403,VALID,0.0679233,VALID,19.9947,VALID,72,VALID,0.55037,
2001-03-16, 00:28:00,VALID,919.461,VALID,0,VALID,97.8894,VALID,0.0849042,VALID,19.9594,VALID,74,VALID,0.626439,
2001-03-16, 00:29:00,VALID,919.455,VALID,0,VALID,97.8538,VALID,0.0679233,VALID,19.9467,VALID,77,VALID,0.603165,
2001-03-16, 00:30:00,VALID,919.44,VALID,0,VALID,97.8703,VALID,0.0679233,VALID,19.9109,VALID,81,VALID,0.719141,
2001-03-16, 00:31:00,VALID,919.419,VALID,0,VALID,97.9517,VALID,0.0339617,VALID,19.898,VALID,86,VALID,0.534745,
2001-03-16, 00:32:00,VALID,919.39,VALID,0,VALID,98.0649,VALID,0.0849042,VALID,19.904,VALID,81,VALID,0.343956,
2001-03-16, 00:33:00,VALID,919.355,VALID,0,VALID,98.0611,VALID,0.0679233,VALID,19.9171,VALID,92,VALID,0.466077,
2001-03-16, 00:34:00,VALID,919.325,VALID,0,VALID,98.0789,VALID,0.0679233,VALID,19.9268,VALID,108,VALID,0.186678,
2001-03-16, 00:35:00,VALID,919.291,VALID,0,VALID,98.1056,VALID,0.0849042,VALID,19.9562,VALID,116,VALID,0.00246711,
2001-03-16, 00:36:00,VALID,919.271,VALID,0,VALID,98.0839,VALID,0.0339617,VALID,19.9795,VALID,106,VALID,0.33491,
2001-03-16, 00:37:00,VALID,919.266,VALID,0,VALID,98.0267,VALID,0,VALID,19.99,VALID,103,VALID,0.688702,
2001-03-16, 00:38:00,VALID,919.278,VALID,0,VALID,97.9682,VALID,-0.0169808,VALID,19.9967,VALID,100,VALID,0.553125,
2001-03-16, 00:39:00,VALID,919.282,VALID,0,VALID,97.8856,VALID,-0.0169808,VALID,19.9862,VALID,80,VALID,0.861225,
2001-03-16, 00:40:00,VALID,919.298,VALID,0,VALID,97.8169,VALID,-0.0339617,VALID,19.9832,VALID,78,VALID,0.711965,
2001-03-16, 00:41:00,VALID,919.292,VALID,0,VALID,97.7648,VALID,-0.0169808,VALID,19.9611,VALID,84,VALID,0.963405,
2001-03-16, 00:42:00,VALID,919.286,VALID,0,VALID,97.7622,VALID,-0.0339617,VALID,19.941,VALID,83,VALID,0.843544,
2001-03-16, 00:43:00,VALID,919.273,VALID,0,VALID,97.7673,VALID,-0.0339617,VALID,19.935,VALID,94,VALID,0.99116,
2001-03-16, 00:44:00,VALID,919.254,VALID,0,VALID,97.7444,VALID,0,VALID,19.9022,VALID,91,VALID,0.953947,
2001-03-16, 00:45:00,VALID,919.229,VALID,0,VALID,97.766,VALID,0.0169808,VALID,19.8893,VALID,98,VALID,0.791066,
2001-03-16, 00:46:00,VALID,919.219,VALID,0,VALID,97.8347,VALID,0,VALID,19.8829,VALID,96,VALID,0.495898,
2001-03-16, 00:47:00,VALID,919.205,VALID,0,VALID,97.8487,VALID,-0.0339617,VALID,19.8963,VALID,103,VALID,0.543174,
2001-03-16, 00:48:00,VALID,919.202,VALID,0,VALID,97.7889,VALID,-0.0169808,VALID,19.8868,VALID,93,VALID,0.472451,
2001-03-16, 00:49:00,VALID,919.216,VALID,0,VALID,97.7482,VALID,-0.0169808,VALID,19.8667,VALID,83,VALID,0.377878,
2001-03-16, 00:50:00,VALID,919.235,VALID,0,VALID,97.7521,VALID,0,VALID,19.8511,VALID,79,VALID,0.229646,
2001-03-16, 00:51:00,VALID,919.248,VALID,0,VALID,97.8055,VALID,0.0509425,VALID,19.8503,VALID,79,VALID,0.0912829,
2001-03-16, 00:52:00,VALID,919.255,VALID,0,VALID,97.9097,VALID,0.0679233,VALID,19.8627,VALID,79,VALID,0,
2001-03-16, 00:53:00,VALID,919.252,VALID,0,VALID,97.972,VALID,0.0849042,VALID,19.8719,VALID,81,VALID,0,
2001-03-16, 00:54:00,VALID,919.241,VALID,0,VALID,97.986,VALID,0.101885,VALID,19.8814,VALID,69,VALID,0,
2001-03-16, 00:55:00,VALID,919.234,VALID,0,VALID,97.9937,VALID,0.0849042,VALID,19.8978,VALID,99,VALID,0,
2001-03-16, 00:56:00,VALID,919.214,VALID,0,VALID,97.9568,VALID,0.0849042,VALID,19.9007,VALID,104,VALID,0,
2001-03-16, 00:57:00,VALID,919.183,VALID,0,VALID,97.8284,VALID,0.101885,VALID,19.8814,VALID,315,VALID,0,
2001-03-16, 00:58:00,VALID,919.163,VALID,0,VALID,97.761,VALID,0.0849042,VALID,19.8722,VALID,289,VALID,0,
2001-03-16, 00:59:00,VALID,919.139,VALID,0,VALID,97.7444,VALID,0.101885,VALID,19.866,VALID,314,VALID,0.351563,
2001-03-16, 01:00:00,VALID,919.135,VALID,0,VALID,97.7355,VALID,0.0849042,VALID,19.8304,VALID,329,VALID,0.336143,
2001-03-16, 01:01:00,VALID,919.126,VALID,0,VALID,97.7457,VALID,0.101885,VALID,19.8006,VALID,330,VALID,0.283253,
2001-03-16, 01:02:00,VALID,919.122,VALID,0,VALID,97.8017,VALID,0.101885,VALID,19.7944,VALID,294,VALID,0,
2001-03-16, 01:03:00,VALID,919.098,VALID,0,VALID,97.8436,VALID,0.101885,VALID,19.7979,VALID,277,VALID,0,
2001-03-16, 01:04:00,VALID,919.079,VALID,0,VALID,97.8601,VALID,0.0849042,VALID,19.8011,VALID,296,VALID,0.180304,
2001-03-16, 01:05:00,VALID,919.043,VALID,0,VALID,97.8271,VALID,0.0849042,VALID,19.775,VALID,301,VALID,0,
2001-03-16, 01:06:00,VALID,919.012,VALID,0,VALID,97.8487,VALID,0.101885,VALID,19.7653,VALID,285,VALID,0,
2001-03-16, 01:07:00,VALID,918.996,VALID,0,VALID,97.8703,VALID,0.0849042,VALID,19.7623,VALID,293,VALID,0,
2001-03-16, 01:08:00,VALID,918.981,VALID,0,VALID,97.8716,VALID,0.0679233,VALID,19.7333,VALID,293,VALID,0,
2001-03-16, 01:09:00,VALID,918.967,VALID,0,VALID,97.8169,VALID,0.0849042,VALID,19.7206,VALID,281,VALID,0.232372,
2001-03-16, 01:10:00,VALID,918.963,VALID,0,VALID,97.8169,VALID,0.0679233,VALID,19.6813,VALID,274,VALID,0.323633,
2001-03-16, 01:11:00,VALID,918.967,VALID,0,VALID,97.8462,VALID,0.101885,VALID,19.6684,VALID,285,VALID,0.363076,
2001-03-16, 01:12:00,VALID,918.974,VALID,0,VALID,97.8563,VALID,0.101885,VALID,19.6525,VALID,293,VALID,0.0246711,
2001-03-16, 01:13:00,VALID,918.986,VALID,0,VALID,97.869,VALID,0.0679233,VALID,19.6431,VALID,295,VALID,0,
2001-03-16, 01:14:00,VALID,918.976,VALID,0,VALID,97.869,VALID,0.0679233,VALID,19.6374,VALID,297,VALID,0,
2001-03-16, 01:15:00,VALID,918.972,VALID,0,VALID,97.8894,VALID,0.0679233,VALID,19.6277,VALID,297,VALID,0,
2001-03-16, 01:16:00,VALID,918.957,VALID,0,VALID,97.9034,VALID,0.0509425,VALID,19.6239,VALID,297,VALID,0,
2001-03-16, 01:17:00,VALID,918.924,VALID,0,VALID,97.8843,VALID,0.0679233,VALID,19.6272,VALID,270,VALID,0,
2001-03-16, 01:18:00,VALID,918.911,VALID,0,VALID,97.9199,VALID,0.0849042,VALID,19.621,VALID,252,VALID,0,
2001-03-16, 01:19:00,VALID,918.916,VALID,0,VALID,97.9072,VALID,0.0339617,VALID,19.5949,VALID,261,VALID,0.20477,
2001-03-16, 01:20:00,VALID,918.923,VALID,0,VALID,97.8512,VALID,0.0849042,VALID,19.5725,VALID,265,VALID,0.0263158,
2001-03-16, 01:21:00,VALID,918.939,VALID,0,VALID,97.911,VALID,0.0509425,VALID,19.5693,VALID,264,VALID,0.00102796,
2001-03-16, 01:22:00,VALID,918.934,VALID,0,VALID,97.972,VALID,0.0339617,VALID,19.569,VALID,260,VALID,0,
2001-03-16, 01:23:00,VALID,918.92,VALID,0,VALID,98.0242,VALID,0.0679233,VALID,19.5787,VALID,262,VALID,0.0180921,
2001-03-16, 01:24:00,VALID,918.909,VALID,0,VALID,98.07,VALID,0,VALID,19.5822,VALID,262,VALID,0,
2001-03-16, 01:25:00,VALID,918.892,VALID,0,VALID,98.0089,VALID,0.0339617,VALID,19.5728,VALID,262,VALID,0,
2001-03-16, 01:26:00,VALID,918.864,VALID,0,VALID,97.9695,VALID,0.0169808,VALID,19.53,VALID,262,VALID,0,
2001-03-16, 01:27:00,VALID,918.835,VALID,0,VALID,97.9771,VALID,0.0339617,VALID,19.5275,VALID,262,VALID,0,
2001-03-16, 01:28:00,VALID,918.827,VALID,0,VALID,97.9682,VALID,0.0169808,VALID,19.498,VALID,261,VALID,0,
2001-03-16, 01:29:00,VALID,918.825,VALID,0,VALID,97.953,VALID,0.0339617,VALID,19.4947,VALID,261,VALID,0,
2001-03-16, 01:30:00,VALID,918.825,VALID,0,VALID,97.8716,VALID,0.0339617,VALID,19.4597,VALID,261,VALID,0,
2001-03-16, 01:31:00,VALID,918.817,VALID,0,VALID,97.7317,VALID,0.0169808,VALID,19.4302,VALID,261,VALID,0,
2001-03-16, 01:32:00,VALID,918.833,VALID,0,VALID,97.6783,VALID,0.0169808,VALID,19.4237,VALID,261,VALID,0,
2001-03-16, 01:33:00,VALID,918.833,VALID,0,VALID,97.5295,VALID,0.0679233,VALID,19.3877,VALID,258,VALID,0,
2001-03-16, 01:34:00,VALID,918.818,VALID,0,VALID,97.4202,VALID,0.0679233,VALID,19.3656,VALID,229,VALID,0.021875,
2001-03-16, 01:35:00,VALID,918.794,VALID,0,VALID,97.3579,VALID,0.0339617,VALID,19.3494,VALID,166,VALID,0.511513,
2001-03-16, 01:36:00,VALID,918.757,VALID,0,VALID,97.4024,VALID,-0.0339617,VALID,19.3407,VALID,157,VALID,0.579153,
2001-03-16, 01:37:00,VALID,918.737,VALID,0,VALID,97.5257,VALID,-0.0679233,VALID,19.2989,VALID,157,VALID,0.302426,
2001-03-16, 01:38:00,VALID,918.731,VALID,0,VALID,97.63,VALID,-0.0679233,VALID,19.2763,VALID,157,VALID,0.0135691,
2001-03-16, 01:39:00,VALID,918.724,VALID,0,VALID,97.7508,VALID,-0.0339617,VALID,19.2736,VALID,157,VALID,0,
2001-03-16, 01:40:00,VALID,918.741,VALID,0,VALID,97.9085,VALID,-0.0509425,VALID,19.2801,VALID,157,VALID,0,
2001-03-16, 01:41:00,VALID,918.735,VALID,0,VALID,97.9987,VALID,-0.0339617,VALID,19.286,VALID,157,VALID,0,
2001-03-16, 01:42:00,VALID,918.72,VALID,0,VALID,97.967,VALID,-0.0339617,VALID,19.2895,VALID,160,VALID,0,
2001-03-16, 01:43:00,VALID,918.707,VALID,0,VALID,98.0127,VALID,-0.0849042,VALID,19.2798,VALID,190,VALID,0,
2001-03-16, 01:44:00,VALID,918.698,VALID,0,VALID,98.1068,VALID,-0.0849042,VALID,19.2897,VALID,193,VALID,0,
2001-03-16, 01:45:00,VALID,918.684,VALID,0,VALID,98.1666,VALID,-0.0679233,VALID,19.2964,VALID,193,VALID,0,
2001-03-16, 01:46:00,VALID,918.686,VALID,0,VALID,98.1768,VALID,-0.0339617,VALID,19.293,VALID,194,VALID,0.240543,
2001-03-16, 01:47:00,VALID,918.658,VALID,0,VALID,98.2696,VALID,-0.0509425,VALID,19.286,VALID,194,VALID,0,
2001-03-16, 01:48:00,VALID,918.633,VALID,0,VALID,98.323,VALID,-0.0509425,VALID,19.2962,VALID,217,VALID,0,
2001-03-16, 01:49:00,VALID,918.619,VALID,0,VALID,98.3535,VALID,-0.0849042,VALID,19.2868,VALID,217,VALID,0,
2001-03-16, 01:50:00,VALID,918.601,VALID,0,VALID,98.4413,VALID,-0.0509425,VALID,19.3086,VALID,217,VALID,0,
2001-03-16, 01:51:00,VALID,918.582,VALID,0,VALID,98.4985,VALID,-0.0339617,VALID,19.3283,VALID,218,VALID,0,
2001-03-16, 01:52:00,VALID,918.561,VALID,0,VALID,98.5608,VALID,-0.0509425,VALID,19.3442,VALID,218,VALID,0,
2001-03-16, 01:53:00,VALID,918.545,VALID,0,VALID,98.5506,VALID,-0.0679233,VALID,19.3603,VALID,216,VALID,0,
2001-03-16, 01:54:00,VALID,918.528,VALID,0,VALID,98.5595,VALID,-0.101885,VALID,19.3541,VALID,205,VALID,0,
2001-03-16, 01:55:00,VALID,918.502,VALID,0,VALID,98.557,VALID,-0.0849042,VALID,19.3573,VALID,205,VALID,0,
2001-03-16, 01:56:00,VALID,918.499,VALID,0,VALID,98.5837,VALID,-0.0509425,VALID,19.3571,VALID,205,VALID,0,
2001-03-16, 01:57:00,VALID,918.493,VALID,0,VALID,98.5862,VALID,-0.0169808,VALID,19.3606,VALID,205,VALID,0,
2001-03-16, 01:58:00,VALID,918.5,VALID,0,VALID,98.6282,VALID,-0.0849042,VALID,19.3774,VALID,205,VALID,0,
2001-03-16, 01:59:00,VALID,918.515,VALID,0,VALID,98.6549,VALID,-0.101885,VALID,19.3901,VALID,202,VALID,0,
2001-03-16, 02:00:00,VALID,918.515,VALID,0,VALID,98.6803,VALID,-0.0509425,VALID,19.406,VALID,122,VALID,0,
2001-03-16, 02:01:00,VALID,918.49,VALID,0,VALID,98.7058,VALID,-0.0849042,VALID,19.4319,VALID,112,VALID,0.114926,
2001-03-16, 02:02:00,VALID,918.474,VALID,0,VALID,98.6981,VALID,-0.101885,VALID,19.442,VALID,103,VALID,0.856291,
2001-03-16, 02:03:00,VALID,918.436,VALID,0,VALID,98.6193,VALID,-0.0849042,VALID,19.4025,VALID,115,VALID,0.74116,
2001-03-16, 02:04:00,VALID,918.401,VALID,0,VALID,98.5417,VALID,-0.0169808,VALID,19.3705,VALID,118,VALID,0.575863,
2001-03-16, 02:05:00,VALID,918.408,VALID,0,VALID,98.5494,VALID,-0.0339617,VALID,19.3347,VALID,122,VALID,0.503005,
2001-03-16, 02:06:00,VALID,918.394,VALID,0,VALID,98.5506,VALID,-0.0679233,VALID,19.3186,VALID,129,VALID,0.69043,
2001-03-16, 02:07:00,VALID,918.379,VALID,0,VALID,98.5506,VALID,-0.0339617,VALID,19.3022,VALID,129,VALID,0.512747,
2001-03-16, 02:08:00,VALID,918.405,VALID,0,VALID,98.5748,VALID,-0.0849042,VALID,19.289,VALID,129,VALID,0.4375,
2001-03-16, 02:09:00,VALID,918.415,VALID,0,VALID,98.6256,VALID,-0.0509425,VALID,19.3059,VALID,129,VALID,0.424959,
2001-03-16, 02:10:00,VALID,918.43,VALID,0,VALID,98.6511,VALID,-0.0679233,VALID,19.3091,VALID,135,VALID,0.469572,
2001-03-16, 02:11:00,VALID,918.429,VALID,0,VALID,98.693,VALID,-0.0849042,VALID,19.3419,VALID,133,VALID,0.280839,
2001-03-16, 02:12:00,VALID,918.425,VALID,0,VALID,98.693,VALID,-0.0679233,VALID,19.3253,VALID,134,VALID,0.450041,
2001-03-16, 02:13:00,VALID,918.408,VALID,0,VALID,98.7019,VALID,-0.0849042,VALID,19.322,VALID,138,VALID,0.390024,
2001-03-16, 02:14:00,VALID,918.396,VALID,0,VALID,98.6905,VALID,-0.0849042,VALID,19.3287,VALID,138,VALID,0.0253906,
2001-03-16, 02:15:00,VALID,918.367,VALID,0,VALID,98.6905,VALID,-0.0849042,VALID,19.3089,VALID,138,VALID,0,
2001-03-16, 02:16:00,VALID,918.363,VALID,0,VALID,98.6981,VALID,-0.0849042,VALID,19.2922,VALID,138,VALID,0,
2001-03-16, 02:17:00,VALID,918.365,VALID,0,VALID,98.7325,VALID,-0.0679233,VALID,19.3124,VALID,135,VALID,0.0464638,
2001-03-16, 02:18:00,VALID,918.351,VALID,0,VALID,98.7617,VALID,-0.0679233,VALID,19.3253,VALID,135,VALID,0.136102,
2001-03-16, 02:19:00,VALID,918.345,VALID,0,VALID,98.7706,VALID,-0.0849042,VALID,19.3186,VALID,126,VALID,0.400082,
2001-03-16, 02:20:00,VALID,918.322,VALID,0,VALID,98.6969,VALID,-0.0339617,VALID,19.3027,VALID,134,VALID,0.600946,
2001-03-16, 02:21:00,VALID,918.303,VALID,0,VALID,98.6651,VALID,0.0169808,VALID,19.2761,VALID,122,VALID,0.690705,
2001-03-16, 02:22:00,VALID,918.296,VALID,0,VALID,98.6613,VALID,0.0509425,VALID,19.2565,VALID,141,VALID,0.676367,
2001-03-16, 02:23:00,VALID,918.283,VALID,0,VALID,98.6702,VALID,0.0679233,VALID,19.2398,VALID,143,VALID,0.162829,
2001-03-16, 02:24:00,VALID,918.282,VALID,0,VALID,98.6943,VALID,0.0509425,VALID,19.2269,VALID,131,VALID,0.621711,
2001-03-16, 02:25:00,VALID,918.275,VALID,0,VALID,98.6854,VALID,0.0339617,VALID,19.2043,VALID,112,VALID,0.570313,
2001-03-16, 02:26:00,VALID,918.29,VALID,0,VALID,98.7388,VALID,0.0509425,VALID,19.1974,VALID,107,VALID,0.418997,
2001-03-16, 02:27:00,VALID,918.308,VALID,0,VALID,98.7554,VALID,0.0679233,VALID,19.2011,VALID,108,VALID,0.493627,
2001-03-16, 02:28:00,VALID,918.308,VALID,0,VALID,98.7528,VALID,0.101885,VALID,19.1842,VALID,136,VALID,0.524877,
2001-03-16, 02:29:00,VALID,918.31,VALID,0,VALID,98.7121,VALID,0.0849042,VALID,19.1489,VALID,138,VALID,0.728365,
2001-03-16, 02:30:00,VALID,918.307,VALID,0,VALID,98.7083,VALID,0.0509425,VALID,19.1266,VALID,127,VALID,0.729883,
2001-03-16, 02:31:00,VALID,918.297,VALID,0,VALID,98.693,VALID,0.0339617,VALID,19.0945,VALID,135,VALID,0.388569,
2001-03-16, 02:32:00,VALID,918.283,VALID,0,VALID,98.6969,VALID,0.0509425,VALID,19.0751,VALID,170,VALID,0.556332,
2001-03-16, 02:33:00,VALID,918.285,VALID,0,VALID,98.6892,VALID,0.0509425,VALID,19.0364,VALID,179,VALID,0.447368,
2001-03-16, 02:34:00,VALID,918.28,VALID,0,VALID,98.7274,VALID,0.0679233,VALID,19.017,VALID,164,VALID,0.269737,
2001-03-16, 02:35:00,VALID,918.278,VALID,0,VALID,98.7795,VALID,0.0169808,VALID,19.0009,VALID,160,VALID,0.464638,
2001-03-16, 02:36:00,VALID,918.279,VALID,0,VALID,98.8151,VALID,-0.0339617,VALID,18.9919,VALID,153,VALID,0.50185,
2001-03-16, 02:37:00,VALID,918.284,VALID,0,VALID,98.7986,VALID,-0.0679233,VALID,18.9702,VALID,146,VALID,0.569311,
2001-03-16, 02:38:00,VALID,918.291,VALID,0,VALID,98.8367,VALID,-0.0509425,VALID,18.9541,VALID,127,VALID,0.495313,
2001-03-16, 02:39:00,VALID,918.294,VALID,0,VALID,98.8698,VALID,-0.0509425,VALID,18.9538,VALID,115,VALID,0.702714,
2001-03-16, 02:40:00,VALID,918.281,VALID,0,VALID,98.8952,VALID,-0.0679233,VALID,18.9379,VALID,125,VALID,0.748972,
2001-03-16, 02:41:00,VALID,918.267,VALID,0,VALID,98.9296,VALID,-0.0169808,VALID,18.9444,VALID,139,VALID,0.55366,
2001-03-16, 02:42:00,VALID,918.251,VALID,0,VALID,98.9334,VALID,-0.0509425,VALID,18.9379,VALID,137,VALID,0.469161,
2001-03-16, 02:43:00,VALID,918.233,VALID,0,VALID,98.9194,VALID,-0.0339617,VALID,18.9054,VALID,149,VALID,0.296258,
2001-03-16, 02:44:00,VALID,918.236,VALID,0,VALID,98.9296,VALID,-0.0679233,VALID,18.9091,VALID,153,VALID,0.256168,
2001-03-16, 02:45:00,VALID,918.229,VALID,0,VALID,98.9486,VALID,-0.0169808,VALID,18.8729,VALID,148,VALID,0.107171,
2001-03-16, 02:46:00,VALID,918.236,VALID,0,VALID,98.9474,VALID,-0.0849042,VALID,18.8731,VALID,158,VALID,0,
2001-03-16, 02:47:00,VALID,918.232,VALID,0,VALID,98.9512,VALID,-0.0339617,VALID,18.8505,VALID,158,VALID,0.162212,
2001-03-16, 02:48:00,VALID,918.219,VALID,0,VALID,98.9893,VALID,0,VALID,18.8632,VALID,156,VALID,0.460321,
2001-03-16, 02:49:00,VALID,918.217,VALID,0,VALID,98.9855,VALID,-0.0679233,VALID,18.8371,VALID,156,VALID,0.449424,
2001-03-16, 02:50:00,VALID,918.205,VALID,0,VALID,98.9868,VALID,-0.0509425,VALID,18.8311,VALID,137,VALID,0.429688,
2001-03-16, 02:51:00,VALID,918.202,VALID,0,VALID,99.0059,VALID,-0.0679233,VALID,18.8281,VALID,133,VALID,0.423725,
2001-03-16, 02:52:00,VALID,918.206,VALID,0,VALID,99.002,VALID,-0.0509425,VALID,18.8048,VALID,145,VALID,0.202508,
2001-03-16, 02:53:00,VALID,918.212,VALID,0,VALID,99.0237,VALID,-0.0339617,VALID,18.8087,VALID,135,VALID,0.061899,
2001-03-16, 02:54:00,VALID,918.228,VALID,0,VALID,99.0466,VALID,-0.0339617,VALID,18.8053,VALID,108,VALID,0.45293,
2001-03-16, 02:55:00,VALID,918.22,VALID,0,VALID,99.044,VALID,-0.0509425,VALID,18.8122,VALID,108,VALID,0.472451,
2001-03-16, 02:56:01,VALID,918.21,VALID,0,VALID,99.0694,VALID,-0.0339617,VALID,18.8055,VALID,121,VALID,0.247738,
2001-03-16, 02:57:00,VALID,918.191,VALID,0,VALID,99.0593,VALID,-0.0339617,VALID,18.8025,VALID,122,VALID,0,
2001-03-16, 02:58:00,VALID,918.179,VALID,0,VALID,99.0211,VALID,-0.0339617,VALID,18.7538,VALID,122,VALID,0,
2001-03-16, 02:59:00,VALID,918.182,VALID,0,VALID,99.0033,VALID,-0.0339617,VALID,18.7123,VALID,122,VALID,0,
2001-03-16, 03:00:00,VALID,918.187,VALID,0,VALID,98.9906,VALID,-0.0849042,VALID,18.6701,VALID,122,VALID,0,
2001-03-16, 03:01:00,VALID,918.169,VALID,0,VALID,99.0237,VALID,-0.0679233,VALID,18.6572,VALID,122,VALID,0,
2001-03-16, 03:02:00,VALID,918.166,VALID,0,VALID,99.0567,VALID,-0.0509425,VALID,18.6505,VALID,122,VALID,0,
2001-03-16, 03:03:00,VALID,918.14,VALID,0,VALID,99.0351,VALID,-0.0849042,VALID,18.6187,VALID,122,VALID,0,
2001-03-16, 03:04:01,VALID,918.136,VALID,0,VALID,99.0033,VALID,-0.0509425,VALID,18.5603,VALID,122,VALID,0,
2001-03-16, 03:05:00,VALID,918.131,VALID,0,VALID,99.0402,VALID,-0.0509425,VALID,18.5571,VALID,122,VALID,0,
2001-03-16, 03:06:00,VALID,918.137,VALID,0,VALID,99.0148,VALID,-0.0849042,VALID,18.5054,VALID,122,VALID,0,
2001-03-16, 03:07:00,VALID,918.116,VALID,0,VALID,99.0466,VALID,-0.101885,VALID,18.5123,VALID,122,VALID,0,
2001-03-16, 03:08:00,VALID,918.107,VALID,0,VALID,99.0364,VALID,-0.101885,VALID,18.4867,VALID,122,VALID,0,
2001-03-16, 03:09:00,VALID,918.111,VALID,0,VALID,98.9995,VALID,-0.0849042,VALID,18.4508,VALID,122,VALID,0,
2001-03-16, 03:10:00,VALID,918.133,VALID,0,VALID,98.9868,VALID,-0.0849042,VALID,18.4284,VALID,122,VALID,0,
2001-03-16, 03:11:00,VALID,918.153,VALID,0,VALID,98.9957,VALID,-0.0509425,VALID,18.4062,VALID,122,VALID,0,
2001-03-16, 03:12:00,VALID,918.172,VALID,0,VALID,99.0224,VALID,-0.0679233,VALID,18.3666,VALID,122,VALID,0,
2001-03-16, 03:13:00,VALID,918.179,VALID,0,VALID,99.044,VALID,-0.0849042,VALID,18.3539,VALID,163,VALID,0,
2001-03-16, 03:14:00,VALID,918.179,VALID,0,VALID,99.058,VALID,-0.0509425,VALID,18.3571,VALID,208,VALID,0,
2001-03-16, 03:15:00,VALID,918.178,VALID,0,VALID,99.0516,VALID,-0.0509425,VALID,18.3377,VALID,208,VALID,0,
2001-03-16, 03:16:00,VALID,918.192,VALID,0,VALID,99.058,VALID,-0.0509425,VALID,18.3184,VALID,182,VALID,0,
2001-03-16, 03:17:00,VALID,918.188,VALID,0,VALID,99.0898,VALID,-0.0339617,VALID,18.3285,VALID,171,VALID,0.00200321,
2001-03-16, 03:18:01,VALID,918.192,VALID,0,VALID,99.0936,VALID,-0.0849042,VALID,18.3154,VALID,171,VALID,0,
2001-03-16, 03:19:00,VALID,918.187,VALID,0,VALID,99.0618,VALID,-0.0339617,VALID,18.2833,VALID,171,VALID,0,
2001-03-16, 03:20:01,VALID,918.179,VALID,0,VALID,99.0961,VALID,-0.0509425,VALID,18.2665,VALID,172,VALID,0.372327,
2001-03-16, 03:21:00,VALID,918.18,VALID,0,VALID,99.1241,VALID,-0.0849042,VALID,18.2801,VALID,174,VALID,0.506785,
2001-03-16, 03:22:00,VALID,918.175,VALID,0,VALID,99.1305,VALID,-0.0509425,VALID,18.2701,VALID,174,VALID,0.0844984,
2001-03-16, 03:23:00,VALID,918.201,VALID,0,VALID,99.133,VALID,-0.0849042,VALID,18.2475,VALID,174,VALID,0.015625,
2001-03-16, 03:24:00,VALID,918.209,VALID,0,VALID,99.119,VALID,-0.0849042,VALID,18.2413,VALID,174,VALID,0.159951,
2001-03-16, 03:25:00,VALID,918.209,VALID,0,VALID,99.1025,VALID,-0.0849042,VALID,18.2189,VALID,168,VALID,0.56891,
2001-03-16, 03:26:01,VALID,918.195,VALID,0,VALID,99.0834,VALID,-0.101885,VALID,18.1804,VALID,162,VALID,0.443555,
2001-03-16, 03:27:00,VALID,918.191,VALID,0,VALID,99.0987,VALID,-0.0679233,VALID,18.1544,VALID,162,VALID,0.0659951,
2001-03-16, 03:28:01,VALID,918.189,VALID,0,VALID,99.1241,VALID,-0.0679233,VALID,18.135,VALID,162,VALID,0,
2001-03-16, 03:29:00,VALID,918.193,VALID,0,VALID,99.133,VALID,-0.0849042,VALID,18.132,VALID,162,VALID,0,
2001-03-16, 03:30:01,VALID,918.185,VALID,0,VALID,99.1356,VALID,-0.101885,VALID,18.1221,VALID,165,VALID,0.371299,
2001-03-16, 03:31:01,VALID,918.162,VALID,0,VALID,99.1445,VALID,-0.0509425,VALID,18.1057,VALID,178,VALID,0.797492,
2001-03-16, 03:32:00,VALID,918.148,VALID,0,VALID,99.1432,VALID,-0.0509425,VALID,18.093,VALID,191,VALID,0.817845,
2001-03-16, 03:33:00,VALID,918.14,VALID,0,VALID,99.1801,VALID,-0.0679233,VALID,18.0766,VALID,182,VALID,0.705529,